Tracking 27107 objects as of 21-Mar-2023
HD Live streaming from Space Station
objects crossing your sky now

DMSP 5D-2 F11 DEB

Track DMSP 5D-2 F11 DEB now!
10-day predictions


NORAD ID: 29074
Int'l Code: 1991-082BV
Perigee: 774.1 km
Apogee: 792.4 km
Inclination: 98.7 °
Period: 100.4 minutes
Semi major axis: 7154 km
RCS: 0.0073 m2 (small)
Launch date: November 28, 1991
Source: United States (US)
Launch site: AIR FORCE WESTERN TEST RANGE (AFWTR)

Note: This is SATELLITE DEBRIS
Your satellite tracking list
Your tracking list is empty




NASA's NSSDC Master Catalog

Two Line Element Set (TLE):
1 29074U 91082BV  23078.95757261  .00005721  00000-0  20336-2 0  9995
2 29074  98.6522 137.2535 0012834 137.8508 222.3666 14.34689332962526
Source of the keplerian elements: AFSPC